Regional Weather Roundup
Issued by NWS Goodland, KS

Home | Current Version | Previous Version | Text Only | Print | Product List | Glossary On
Versions: 1 2 3 4 5 6 7 8 9 10 11 12 13 14 15 16 17 18 19 20 21 22 23 24 25 26 27 28 29 30 31 32 33 34 35 36 37 38 39 40 41 42 43 44 45 46 47 48 49 50
000
ASUS43 KGLD 280808
RWRGLD

GOODLAND FORECAST AREA HOURLY WEATHER ROUNDUP
NATIONAL WEATHER SERVICE GOODLAND KS
200 AM MDT TUE JUL 28 2015

...OFFICIAL OBSERVATIONS...

CITY           SKY/WX    TMP DP  RH WIND       PRES   REMARKS
GOODLAND KS    CLEAR     75  64  68 S16       29.81F
HILL CITY KS   CLEAR     82  68  62 S16G24    29.78F
IMPERIAL NEB   CLEAR     74  64  71 SW7       29.78S
MCCOOK NEB     CLEAR     82  68  62 S16G28    29.73F
AKRON CO         N/A    N/A N/A N/A MISG      29.94R
BURLINGTON CO  PTCLDY    71  61  70 SW9       29.87R
LIMON CO       CLEAR     64  50  60 N10       30.00R
$$

...UNOFFICIAL OBSERVATIONS...

CITY           SKY/WX    TMP DP  RH WIND       PRES   REMARKS
COLBY KS       CLEAR     79  70  73 S20G26    29.81F
LENORA KS        N/A     80  32  17 MISG        N/A
NORTON KS      CLEAR     79  63  57 S18G28    29.76F
SHARON SPRINGS   N/A     75  66  75 S15         N/A
TRIBUNE KS       N/A    N/A N/A N/A MISG        N/A
KIT CARSON CO    N/A     68  61  78 MISG        N/A
YUMA CO          N/A     74  51  43 N12         N/A
$$


USA.gov is the U.S. government's official web portal to all federal, state and local government web resources and services.